Weather History for Istanbul / Ataturk, Turkey

Change the Weather History Date:

Thursday, January 24, 2013

  Actual Average Record
Temperature  
Mean Temperature 54 °F -  
Max Temperature 60 °F 47 °F - ()
Min Temperature 47 °F 37 °F - ()
Degree Days  
Heating Degree Days 12    
Growing Degree Days 4 (Base 50)    
Moisture  
Dew Point 42 °F    
Average Humidity 67    
Maximum Humidity 87    
Minimum Humidity 47    
Precipitation  
Precipitation 0.02 in - - ()
Sea Level Pressure  
Sea Level Pressure 29.86 in    
Wind  
Wind Speed 5 mph ()    
Max Wind Speed 10 mph    
Max Gust Speed -    
Visibility 6.2 miles    
Events Rain    
T = Trace of Precipitation, MM = Missing Value Source: Averaged Metar Reports

Daily Weather History Graph

Daily Weather History Graph

Search for Another Location

Airport:

Trip Planner

Search our weather history database for the weather conditions in past years. The results will help you decide how hot, cold, wet, or windy it might be!

Date:

Astronomy

Jan. 24, 2013 Rise Set
Actual Time 7:22 AM EET 5:11 PM EET
Civil Twilight 6:52 AM EET 5:41 PM EET
Nautical Twilight 6:19 AM EET 6:14 PM EET
Astronomical Twilight 5:46 AM EET 6:47 PM EET
Moon 2:56 PM EET (1/24) 5:05 AM EET (1/24)
Length of Visible Light 10h 49m
Length of Day
9h 49m
Waxing Gibbous, 93% of the Moon is Illuminated
Jan 24
Waxing Gibbous
Jan 27
Full
Feb 3
Last Quarter
Feb 10
New
Feb 17
First Quarter

Hourly Weather History & Observations

Time (EET) Temp. Dew Point Humidity Pressure Visibility Wind Dir Wind Speed Gust Speed Precip Events Conditions
12:20 AM 50.0 °F 42.8 °F 76% 29.98 in 6.2 mi SW 6.9 mph - N/A   Partly Cloudy
12:50 AM 50.0 °F 44.6 °F 82% 29.95 in 6.2 mi SSW 8.1 mph - N/A   Partly Cloudy
1:20 AM 50.0 °F 42.8 °F 76% 29.95 in 6.2 mi SSW 9.2 mph - N/A   Partly Cloudy
1:50 AM 48.2 °F 42.8 °F 82% 29.98 in 6.2 mi NW 3.5 mph - N/A   Partly Cloudy
2:00 AM 48 °F 44 °F 80% 29.98 in 6 mi NW 3.5 mph - -   Scattered Clouds
2:20 AM 48.2 °F 44.6 °F 87% 29.98 in 6.2 mi WNW 4.6 mph - N/A   Partly Cloudy
2:50 AM 50.0 °F 42.8 °F 76% 29.98 in 6.2 mi Variable 2.3 mph - N/A   Partly Cloudy
3:20 AM 50.0 °F 44.6 °F 82% 29.95 in 6.2 mi WNW 4.6 mph - N/A   Partly Cloudy
3:50 AM 48.2 °F 42.8 °F 82% 29.95 in 6.2 mi WNW 3.5 mph - N/A   Partly Cloudy
4:20 AM 48.2 °F 42.8 °F 82% 29.95 in 6.2 mi West 6.9 mph - N/A   Partly Cloudy
4:50 AM 48.2 °F 42.8 °F 82% 29.95 in 6.2 mi West 3.5 mph - N/A   Scattered Clouds
5:20 AM 48.2 °F 42.8 °F 82% 29.95 in 6.2 mi SSW 6.9 mph - N/A   Scattered Clouds
5:50 AM 48.2 °F 42.8 °F 82% 29.95 in 6.2 mi WSW 4.6 mph - N/A   Scattered Clouds
6:20 AM 48.2 °F 41.0 °F 76% 29.95 in 6.2 mi WSW 3.5 mph - N/A   Scattered Clouds
6:50 AM 48.2 °F 42.8 °F 82% 29.95 in 6.2 mi Variable 2.3 mph - N/A   Scattered Clouds
7:20 AM 48.2 °F 41.0 °F 76% 29.95 in 6.2 mi Variable 2.3 mph - N/A   Partly Cloudy
7:50 AM 50.0 °F 41.0 °F 71% 29.95 in 6.2 mi Variable 2.3 mph - N/A   Partly Cloudy
8:00 AM 50 °F 41 °F 63% 29.96 in 6 mi WSW 2.3 mph - -   Scattered Clouds
8:20 AM 51.8 °F 41.0 °F 67% 29.95 in 6.2 mi South 6.9 mph - N/A   Partly Cloudy
8:50 AM 51.8 °F 39.2 °F 62% 29.95 in 6.2 mi South 10.4 mph - N/A   Partly Cloudy
9:20 AM 51.8 °F 39.2 °F 62% 29.95 in 6.2 mi SE 6.9 mph - N/A   Partly Cloudy
9:50 AM 51.8 °F 42.8 °F 71% 29.95 in 6.2 mi East 8.1 mph - N/A   Partly Cloudy
10:20 AM 51.8 °F 42.8 °F 71% 29.95 in 6.2 mi East 6.9 mph - N/A   Scattered Clouds
10:50 AM 51.8 °F 42.8 °F 71% 29.95 in 6.2 mi East 6.9 mph - N/A   Scattered Clouds
11:20 AM 51.8 °F 42.8 °F 71% 29.92 in 6.2 mi ESE 5.8 mph - N/A   Scattered Clouds
11:50 AM 55.4 °F 42.8 °F 63% 29.92 in 6.2 mi ESE 4.6 mph - N/A   Scattered Clouds
12:20 PM 55.4 °F 41.0 °F 58% 29.89 in 6.2 mi SSE 5.8 mph - N/A   Scattered Clouds
12:50 PM 57.2 °F 41.0 °F 55% 29.86 in 6.2 mi SSE 6.9 mph - N/A   Mostly Cloudy
1:20 PM 55.4 °F 41.0 °F 58% 29.86 in 6.2 mi SE 5.8 mph - N/A   Mostly Cloudy
1:50 PM 55.4 °F 41.0 °F 58% 29.86 in 6.2 mi SSW 5.8 mph - N/A   Mostly Cloudy
2:00 PM 56 °F 42 °F 48% 29.86 in 6 mi SSW 5.8 mph - -   Partly Cloudy
2:20 PM 57.2 °F 41.0 °F 55% 29.83 in 6.2 mi South 5.8 mph - N/A   Mostly Cloudy
2:50 PM 57.2 °F 41.0 °F 55% 29.83 in 6.2 mi South 10.4 mph - N/A   Mostly Cloudy
3:20 PM 57.2 °F 41.0 °F 55% 29.83 in 6.2 mi South 8.1 mph - N/A   Mostly Cloudy
3:50 PM 55.4 °F 41.0 °F 58% 29.80 in 6.2 mi South 4.6 mph - N/A   Mostly Cloudy
4:20 PM 55.4 °F 42.8 °F 63% 29.80 in 6.2 mi Variable 2.3 mph - N/A   Mostly Cloudy
4:50 PM 55.4 °F 42.8 °F 63% 29.77 in 6.2 mi East 4.6 mph - N/A   Mostly Cloudy
5:20 PM 55.4 °F 42.8 °F 63% 29.77 in 6.2 mi ESE 4.6 mph - N/A   Mostly Cloudy
5:50 PM 55.4 °F 42.8 °F 63% 29.77 in 6.2 mi East 4.6 mph - N/A Rain Light Rain Showers
6:20 PM 55.4 °F 42.8 °F 63% 29.74 in 6.2 mi East 5.8 mph - N/A Rain Light Rain Showers
6:50 PM 55.4 °F 42.8 °F 63% 29.74 in 6.2 mi ENE 6.9 mph - N/A Rain Light Rain Showers
7:20 PM 55.4 °F 42.8 °F 63% 29.74 in 6.2 mi East 8.1 mph - N/A Rain Light Rain Showers
7:50 PM 57.2 °F 44.6 °F 63% 29.71 in 6.2 mi East 6.9 mph - N/A Rain Light Rain Showers
8:00 PM 57 °F 42 °F 47% 29.73 in 6 mi East 6.9 mph - - Rain Light Rain Showers
8:20 PM 57.2 °F 42.8 °F 59% 29.71 in 6.2 mi East 6.9 mph - N/A Rain Light Rain Showers
8:50 PM 60.8 °F 42.8 °F 52% 29.68 in 6.2 mi ESE 8.1 mph - N/A Rain Light Rain Showers
9:20 PM 59.0 °F 42.8 °F 55% 29.68 in 6.2 mi East 6.9 mph - N/A Rain Light Rain Showers
9:50 PM 55.4 °F 44.6 °F 67% 29.65 in 6.2 mi East 6.9 mph - N/A Rain Light Rain Showers
10:20 PM 55.4 °F 42.8 °F 63% 29.65 in 6.2 mi East 5.8 mph - N/A   Mostly Cloudy
10:50 PM 55.4 °F 42.8 °F 63% 29.65 in 6.2 mi ESE 5.8 mph - N/A   Mostly Cloudy
11:20 PM 55.4 °F 42.8 °F 63% 29.65 in 6.2 mi ESE 6.9 mph - N/A   Mostly Cloudy
11:50 PM 55.4 °F 42.8 °F 63% 29.62 in 6.2 mi SE 9.2 mph - N/A   Mostly Cloudy